| time (UTC) | temp C | wind direction | speed KPH | gust KPH | rain 1hr cm | rain 24hr cm | rain mn cm | humidity % | barometer mb |
| 20260903203005 | 32 | 89 | 4.8 | 6.4 | 0.00 | 0.00 | 0.00 | 63 | 1013.8 |
| 20260903202503 | 31 | 51 | 0.0 | 6.4 | 0.00 | 0.00 | 0.00 | 65 | 1013.9 |
| 20260903202004 | 32 | 109 | 1.6 | 6.4 | 0.00 | 0.00 | 0.00 | 67 | 1014.0 |
| 20260903201512 | 32 | 94 | 3.2 | 11.3 | 0.00 | 0.00 | 0.00 | 64 | 1013.9 |
| 20260903201005 | 32 | 86 | 3.2 | 11.3 | 0.00 | 0.00 | 0.00 | 65 | 1014.0 |
| 20260903200506 | 32 | 95 | 3.2 | 9.7 | 0.00 | 0.00 | 0.00 | 65 | 1014.1 |
| 20260903200017 | 32 | 55 | 3.2 | 9.7 | 0.00 | 0.00 | 0.00 | 66 | 1014.3 |
| 20260903195506 | 31 | 30 | 4.8 | 9.7 | 0.00 | 0.00 | 0.00 | 66 | 1014.3 |
| 20260903195011 | 31 | 119 | 3.2 | 11.3 | 0.00 | 0.00 | 0.00 | 67 | 1014.4 |
| 20260903194522 | 31 | 93 | 4.8 | 11.3 | 0.00 | 0.00 | 0.00 | 65 | 1014.4 |
| 20260903194011 | 31 | 9 | 3.2 | 9.7 | 0.00 | 0.00 | 0.00 | 67 | 1014.4 |
| 20260903193516 | 31 | 45 | 4.8 | 9.7 | 0.00 | 0.00 | 0.00 | 64 | 1014.5 |
| 20260903193027 | 31 | 19 | 3.2 | 8.0 | 0.00 | 0.00 | 0.00 | 66 | 1014.6 |
| 20260903192504 | 31 | 39 | 3.2 | 9.7 | 0.00 | 0.00 | 0.00 | 65 | 1014.6 |
| 20260903192003 | 31 | 35 | 4.8 | 9.7 | 0.00 | 0.00 | 0.00 | 64 | 1014.6 |
| 20260903191509 | 32 | 30 | 4.8 | 11.3 | 0.00 | 0.00 | 0.00 | 66 | 1014.7 |
| 20260903191002 | 31 | 86 | 0.0 | 11.3 | 0.00 | 0.00 | 0.00 | 68 | 1014.6 |
| 20260903190507 | 31 | 62 | 4.8 | 9.7 | 0.00 | 0.00 | 0.00 | 65 | 1014.7 |
| 20260903190015 | 31 | 342 | 1.6 | 12.9 | 0.00 | 0.00 | 0.00 | 68 | 1014.8 |
| 20260903185506 | 31 | 276 | 0.0 | 12.9 | 0.00 | 0.00 | 0.00 | 66 | 1014.9 |
| 20260903185008 | 31 | 67 | 1.6 | 11.3 | 0.00 | 0.00 | 0.00 | 68 | 1014.9 |
| 20260903184520 | 31 | 168 | 3.2 | 4.8 | 0.00 | 0.00 | 0.00 | 68 | 1015.0 |
| 20260903184011 | 31 | 50 | 1.6 | 4.8 | 0.00 | 0.00 | 0.00 | 73 | 1015.1 |
| 20260903183511 | 31 | 105 | 1.6 | 4.8 | 0.00 | 0.00 | 0.00 | 70 | 1015.2 |
| 20260903183028 | 30 | 48 | 1.6 | 6.4 | 0.00 | 0.00 | 0.00 | 71 | 1015.3 |
| 20260903182514 | 30 | 79 | 3.2 | 8.0 | 0.00 | 0.00 | 0.00 | 71 | 1015.4 |
| 20260903182015 | 30 | 32 | 3.2 | 9.7 | 0.00 | 0.00 | 0.00 | 70 | 1015.5 |
| 20260903181505 | 30 | 340 | 4.8 | 11.3 | 0.00 | 0.00 | 0.00 | 71 | 1015.6 |
| 20260903181004 | 30 | 42 | 3.2 | 11.3 | 0.00 | 0.00 | 0.00 | 72 | 1015.7 |
| 20260903180504 | 30 | 66 | 6.4 | 11.3 | 0.00 | 0.00 | 0.00 | 70 | 1015.7 |
| 20260903180034 | 30 | 83 | 4.8 | 12.9 | 0.00 | 0.00 | 0.00 | 71 | 1015.7 |
| 20260903175503 | 30 | 52 | 4.8 | 14.5 | 0.00 | 0.00 | 0.00 | 71 | 1015.7 |
| 20260903175006 | 30 | 107 | 8.0 | 16.1 | 0.00 | 0.00 | 0.00 | 70 | 1015.8 |
| 20260903174518 | 30 | 142 | 8.0 | 20.9 | 0.00 | 0.00 | 0.00 | 70 | 1015.8 |
| 20260903174007 | 30 | 97 | 9.7 | 20.9 | 0.00 | 0.00 | 0.00 | 72 | 1015.9 |
| 20260903173511 | 30 | 80 | 11.3 | 16.1 | 0.00 | 0.00 | 0.00 | 72 | 1015.9 |
| 20260903173032 | 30 | 67 | 8.0 | 16.1 | 0.00 | 0.00 | 0.00 | 71 | 1015.9 |
| 20260903172512 | 30 | 46 | 8.0 | 12.9 | 0.00 | 0.00 | 0.00 | 72 | 1016.0 |
| 20260903172013 | 30 | 88 | 6.4 | 11.3 | 0.00 | 0.00 | 0.00 | 72 | 1015.9 |
| 20260903171530 | 30 | 16 | 8.0 | 14.5 | 0.00 | 0.00 | 0.00 | 73 | 1016.0 |
| 20260903171014 | 30 | 96 | 9.7 | 14.5 | 0.00 | 0.00 | 0.00 | 74 | 1016.0 |
| 20260903170506 | 30 | 84 | 9.7 | 14.5 | 0.00 | 0.00 | 0.00 | 73 | 1016.2 |
| 20260903170009 | 30 | 66 | 3.2 | 12.9 | 0.00 | 0.00 | 0.00 | 75 | 1016.2 |
| 20260903165504 | 30 | 92 | 4.8 | 9.7 | 0.00 | 0.00 | 0.00 | 76 | 1016.3 |
| 20260903165007 | 30 | 88 | 4.8 | 11.3 | 0.00 | 0.00 | 0.00 | 77 | 1016.3 |
| 20260903164518 | 29 | 83 | 4.8 | 12.9 | 0.00 | 0.00 | 0.00 | 76 | 1016.3 |
| 20260903164012 | 29 | 31 | 4.8 | 12.9 | 0.00 | 0.00 | 0.00 | 77 | 1016.4 |
| 20260903163508 | 29 | 15 | 3.2 | 14.5 | 0.00 | 0.00 | 0.00 | 75 | 1016.3 |
| 20260903163024 | 29 | 23 | 4.8 | 14.5 | 0.00 | 0.00 | 0.00 | 77 | 1016.4 |
| 20260903162511 | 29 | 74 | 3.2 | 16.1 | 0.00 | 0.00 | 0.00 | 77 | 1016.5 |
| 20260903162016 | 29 | 49 | 6.4 | 16.1 | 0.00 | 0.00 | 0.00 | 77 | 1016.5 |
| 20260903161529 | 29 | 40 | 8.0 | 14.5 | 0.00 | 0.00 | 0.00 | 76 | 1016.6 |
| 20260903161014 | 28 | 94 | 8.0 | 16.1 | 0.00 | 0.00 | 0.00 | 76 | 1016.7 |
| 20260903160517 | 29 | 80 | 8.0 | 16.1 | 0.00 | 0.00 | 0.00 | 78 | 1016.7 |
| 20260903160008 | 28 | 54 | 4.8 | 16.1 | 0.00 | 0.00 | 0.00 | 79 | 1016.7 |
| 20260903155504 | 28 | 100 | 11.3 | 16.1 | 0.00 | 0.00 | 0.00 | 78 | 1016.7 |
| 20260903155004 | 28 | 67 | 6.4 | 12.9 | 0.00 | 0.00 | 0.00 | 80 | 1016.7 |
| 20260903154514 | 28 | 90 | 6.4 | 12.9 | 0.00 | 0.00 | 0.00 | 81 | 1016.7 |
| 20260903154012 | 28 | 25 | 4.8 | 12.9 | 0.00 | 0.00 | 0.00 | 81 | 1016.7 |
| 20260903153512 | 28 | 77 | 8.0 | 12.9 | 0.00 | 0.00 | 0.00 | 81 | 1016.8 |
| 20260903153019 | 28 | 67 | 6.4 | 14.5 | 0.00 | 0.00 | 0.00 | 81 | 1016.7 |
| 20260903152512 | 28 | 98 | 9.7 | 14.5 | 0.00 | 0.00 | 0.00 | 82 | 1016.7 |
| 20260903152012 | 28 | 82 | 4.8 | 12.9 | 0.00 | 0.00 | 0.00 | 83 | 1016.6 |
| 20260903151524 | 27 | 27 | 4.8 | 11.3 | 0.00 | 0.00 | 0.00 | 84 | 1016.6 |
| 20260903151013 | 27 | 34 | 6.4 | 12.9 | 0.00 | 0.00 | 0.00 | 83 | 1016.7 |
| 20260903150517 | 27 | 21 | 6.4 | 12.9 | 0.00 | 0.00 | 0.00 | 83 | 1016.7 |
| 20260903150038 | 27 | 38 | 4.8 | 11.3 | 0.00 | 0.00 | 0.00 | 84 | 1016.7 |
| 20260903145517 | 27 | 9 | 3.2 | 12.9 | 0.00 | 0.00 | 0.00 | 85 | 1016.7 |
| 20260903145004 | 27 | 20 | 4.8 | 12.9 | 0.00 | 0.00 | 0.00 | 85 | 1016.7 |
| 20260903144511 | 27 | 64 | 6.4 | 12.9 | 0.00 | 0.00 | 0.00 | 85 | 1016.6 |
| 20260903144004 | 27 | 101 | 4.8 | 11.3 | 0.00 | 0.00 | 0.00 | 86 | 1016.6 |
| 20260903143507 | 27 | 78 | 4.8 | 14.5 | 0.00 | 0.00 | 0.00 | 86 | 1016.6 |
| 20260903143021 | 27 | 85 | 6.4 | 14.5 | 0.00 | 0.00 | 0.00 | 86 | 1016.6 |
| 20260903142510 | 27 | 92 | 6.4 | 11.3 | 0.00 | 0.00 | 0.00 | 86 | 1016.7 |
| 20260903142014 | 26 | 65 | 3.2 | 9.7 | 0.00 | 0.00 | 0.00 | 87 | 1016.6 |
| 20260903141529 | 26 | 89 | 3.2 | 9.7 | 0.00 | 0.00 | 0.00 | 87 | 1016.6 |
| 20260903141013 | 26 | 72 | 3.2 | 9.7 | 0.00 | 0.00 | 0.00 | 88 | 1016.7 |
| 20260903140514 | 26 | 56 | 3.2 | 6.4 | 0.00 | 0.00 | 0.00 | 88 | 1016.7 |
| 20260903140048 | 26 | 60 | 3.2 | 6.4 | 0.00 | 0.00 | 0.00 | 88 | 1016.7 |
| 20260903135514 | 26 | 32 | 1.6 | 8.0 | 0.00 | 0.00 | 0.00 | 88 | 1016.7 |
| 20260903135014 | 26 | 42 | 3.2 | 8.0 | 0.00 | 0.00 | 0.00 | 89 | 1016.7 |
| 20260903134533 | 26 | 60 | 1.6 | 8.0 | 0.00 | 0.00 | 0.00 | 88 | 1016.7 |
| 20260903134006 | 26 | 59 | 1.6 | 8.0 | 0.00 | 0.00 | 0.00 | 88 | 1016.8 |
| 20260903133510 | 26 | 53 | 3.2 | 8.0 | 0.00 | 0.00 | 0.00 | 88 | 1016.7 |
| 20260903133013 | 26 | 30 | 3.2 | 11.3 | 0.00 | 0.00 | 0.00 | 89 | 1016.7 |
| 20260903132512 | 26 | 86 | 6.4 | 11.3 | 0.00 | 0.00 | 0.00 | 88 | 1016.8 |
| 20260903132010 | 26 | 82 | 6.4 | 11.3 | 0.00 | 0.00 | 0.00 | 88 | 1016.6 |
| 20260903131526 | 26 | 48 | 4.8 | 8.0 | 0.00 | 0.00 | 0.00 | 88 | 1016.6 |
| 20260903131011 | 26 | 66 | 4.8 | 6.4 | 0.00 | 0.00 | 0.00 | 88 | 1016.6 |
| 20260903130514 | 26 | 87 | 3.2 | 8.0 | 0.00 | 0.00 | 0.00 | 88 | 1016.5 |
| 20260903130031 | 25 | 71 | 3.2 | 8.0 | 0.00 | 0.00 | 0.00 | 89 | 1016.5 |
| 20260903125514 | 25 | 87 | 4.8 | 11.3 | 0.00 | 0.00 | 0.00 | 88 | 1016.4 |
| 20260903125015 | 25 | 84 | 3.2 | 11.3 | 0.00 | 0.00 | 0.00 | 89 | 1016.4 |
| 20260903124531 | 25 | 90 | 4.8 | 6.4 | 0.00 | 0.00 | 0.00 | 88 | 1016.3 |
| 20260903124015 | 25 | 63 | 1.6 | 6.4 | 0.00 | 0.00 | 0.00 | 89 | 1016.3 |
| 20260903123514 | 25 | 66 | 1.6 | 8.0 | 0.00 | 0.00 | 0.00 | 90 | 1016.3 |
| 20260903123028 | 25 | 84 | 3.2 | 8.0 | 0.00 | 0.00 | 0.00 | 90 | 1016.1 |
| 20260903122510 | 25 | 81 | 1.6 | 4.8 | 0.00 | 0.00 | 0.00 | 90 | 1016.0 |
| 20260903122013 | 25 | 71 | 3.2 | 6.4 | 0.00 | 0.00 | 0.00 | 91 | 1015.9 |
| 20260903121521 | 24 | 38 | 3.2 | 6.4 | 0.00 | 0.00 | 0.00 | 91 | 1015.9 |
| 20260903121015 | 24 | 30 | 3.2 | 6.4 | 0.00 | 0.00 | 0.00 | 92 | 1016.0 |
| 20260903120515 | 24 | 39 | 3.2 | 4.8 | 0.00 | 0.00 | 0.00 | 92 | 1016.1 |
| 20260903120029 | 24 | 46 | 1.6 | 3.2 | 0.00 | 0.00 | 0.00 | 93 | 1016.0 |
| 20260903115516 | 23 | 30 | 0.0 | 0.0 | 0.00 | 0.00 | 0.00 | 93 | 1016.0 |
| 20260903115003 | 23 | 57 | 0.0 | 4.8 | 0.00 | 0.00 | 0.00 | 93 | 1015.9 |
| 20260903114506 | 23 | 75 | 0.0 | 4.8 | 0.00 | 0.00 | 0.00 | 93 | 1015.9 |
| 20260903114003 | 23 | 34 | 1.6 | 4.8 | 0.00 | 0.00 | 0.00 | 93 | 1015.9 |
| 20260903113503 | 23 | 54 | 0.0 | 0.0 | 0.00 | 0.00 | 0.00 | 93 | 1015.7 |
| 20260903113019 | 23 | 54 | 0.0 | 0.0 | 0.00 | 0.00 | 0.00 | 93 | 1015.7 |
| 20260903112503 | 23 | 31 | 0.0 | 0.0 | 0.00 | 0.00 | 0.00 | 93 | 1015.6 |
| 20260903112003 | 23 | 26 | 0.0 | 0.0 | 0.00 | 0.00 | 0.00 | 93 | 1015.6 |
| 20260903111509 | 23 | 9 | 0.0 | 0.0 | 0.00 | 0.00 | 0.00 | 93 | 1015.6 |
| 20260903111002 | 23 | 9 | 0.0 | 0.0 | 0.00 | 0.00 | 0.00 | 93 | 1015.6 |
| 20260903110504 | 23 | 9 | 0.0 | 0.0 | 0.00 | 0.00 | 0.00 | 93 | 1015.6 |
| 20260903110008 | 23 | 9 | 0.0 | 0.0 | 0.00 | 0.00 | 0.00 | 93 | 1015.6 |
| 20260903105503 | 23 | 9 | 0.0 | 0.0 | 0.00 | 0.00 | 0.00 | 93 | 1015.5 |
| 20260903105005 | 23 | 9 | 0.0 | 0.0 | 0.00 | 0.00 | 0.00 | 93 | 1015.4 |
| 20260903104512 | 23 | 9 | 0.0 | 0.0 | 0.00 | 0.00 | 0.00 | 93 | 1015.4 |
| 20260903104004 | 23 | 9 | 0.0 | 0.0 | 0.00 | 0.00 | 0.00 | 92 | 1015.4 |
| 20260903103502 | 23 | 9 | 0.0 | 0.0 | 0.00 | 0.00 | 0.00 | 92 | 1015.3 |
| 20260903103010 | 23 | 9 | 0.0 | 0.0 | 0.00 | 0.00 | 0.00 | 92 | 1015.3 |
| 20260903102502 | 23 | 9 | 0.0 | 0.0 | 0.00 | 0.00 | 0.00 | 92 | 1015.2 |
| 20260903102003 | 23 | 9 | 0.0 | 0.0 | 0.00 | 0.00 | 0.00 | 92 | 1015.1 |
| 20260903101511 | 23 | 15 | 0.0 | 0.0 | 0.00 | 0.00 | 0.00 | 92 | 1015.0 |
| 20260903101004 | 23 | 15 | 0.0 | 0.0 | 0.00 | 0.00 | 0.00 | 92 | 1015.0 |
| 20260903100504 | 23 | 69 | 0.0 | 0.0 | 0.00 | 0.00 | 0.00 | 92 | 1015.1 |
| 20260903100018 | 23 | 69 | 0.0 | 0.0 | 0.00 | 0.00 | 0.00 | 92 | 1015.1 |
| 20260903095503 | 24 | 69 | 0.0 | 0.0 | 0.00 | 0.00 | 0.00 | 92 | 1015.0 |
| 20260903095004 | 24 | 69 | 0.0 | 0.0 | 0.00 | 0.00 | 0.00 | 92 | 1015.0 |
| 20260903094511 | 24 | 69 | 0.0 | 0.0 | 0.00 | 0.00 | 0.00 | 92 | 1015.0 |
| 20260903094004 | 24 | 69 | 0.0 | 0.0 | 0.00 | 0.00 | 0.00 | 92 | 1014.9 |
| 20260903093504 | 24 | 69 | 0.0 | 0.0 | 0.00 | 0.00 | 0.00 | 92 | 1014.9 |
| 20260903093029 | 24 | 64 | 0.0 | 0.0 | 0.00 | 0.00 | 0.00 | 92 | 1014.9 |
| 20260903092503 | 24 | 64 | 0.0 | 0.0 | 0.00 | 0.00 | 0.00 | 92 | 1015.0 |
| 20260903092007 | 24 | 76 | 0.0 | 0.0 | 0.00 | 0.00 | 0.00 | 92 | 1015.0 |
| 20260903091512 | 24 | 76 | 0.0 | 0.0 | 0.00 | 0.00 | 0.00 | 91 | 1015.0 |
| 20260903091003 | 24 | 85 | 0.0 | 0.0 | 0.00 | 0.00 | 0.00 | 91 | 1015.0 |
| 20260903090505 | 24 | 57 | 0.0 | 0.0 | 0.00 | 0.00 | 0.00 | 91 | 1015.0 |
| 20260903090011 | 24 | 32 | 0.0 | 0.0 | 0.00 | 0.00 | 0.00 | 92 | 1015.0 |
| 20260903085506 | 24 | 59 | 0.0 | 4.8 | 0.00 | 0.00 | 0.00 | 92 | 1015.0 |
| 20260903084527 | 23 | 80 | 0.0 | 3.2 | 0.00 | 0.00 | 0.00 | 92 | 1015.0 |
| 20260903084003 | 23 | 61 | 0.0 | 0.0 | 0.00 | 0.00 | 0.00 | 92 | 1015.1 |
| 20260903083504 | 23 | 65 | 0.0 | 0.0 | 0.00 | 0.00 | 0.00 | 92 | 1015.1 |
| 20260903083012 | 23 | 65 | 0.0 | 0.0 | 0.00 | 0.00 | 0.00 | 92 | 1015.0 |
| 20260903082503 | 24 | 19 | 0.0 | 0.0 | 0.00 | 0.00 | 0.00 | 91 | 1015.0 |
| 20260903082004 | 24 | 19 | 0.0 | 0.0 | 0.00 | 0.00 | 0.00 | 91 | 1015.0 |
| 20260903081515 | 24 | 19 | 0.0 | 0.0 | 0.00 | 0.00 | 0.00 | 91 | 1015.0 |
| 20260903081008 | 24 | 15 | 0.0 | 0.0 | 0.00 | 0.00 | 0.00 | 91 | 1014.9 |
| 20260903080507 | 24 | 36 | 0.0 | 0.0 | 0.00 | 0.00 | 0.00 | 91 | 1015.0 |
| 20260903080015 | 24 | 78 | 0.0 | 0.0 | 0.00 | 0.00 | 0.00 | 90 | 1015.0 |
| 20260903075507 | 24 | 78 | 0.0 | 3.2 | 0.00 | 0.00 | 0.00 | 90 | 1015.1 |
| 20260903075004 | 24 | 78 | 0.0 | 3.2 | 0.00 | 0.00 | 0.00 | 90 | 1015.1 |
| 20260903074514 | 24 | 65 | 0.0 | 0.0 | 0.00 | 0.00 | 0.00 | 89 | 1015.2 |
| 20260903074009 | 24 | 119 | 0.0 | 0.0 | 0.00 | 0.00 | 0.00 | 89 | 1015.2 |
| 20260903073504 | 25 | 119 | 0.0 | 0.0 | 0.00 | 0.00 | 0.00 | 89 | 1015.2 |
| 20260903073017 | 25 | 119 | 0.0 | 0.0 | 0.00 | 0.00 | 0.00 | 88 | 1015.2 |
| 20260903072507 | 25 | 119 | 0.0 | 0.0 | 0.00 | 0.00 | 0.00 | 88 | 1015.2 |
| 20260903072007 | 25 | 119 | 0.0 | 0.0 | 0.00 | 0.00 | 0.00 | 89 | 1015.3 |
| 20260903071518 | 25 | 119 | 0.0 | 0.0 | 0.00 | 0.00 | 0.00 | 89 | 1015.3 |
| 20260903071003 | 25 | 119 | 0.0 | 0.0 | 0.00 | 0.00 | 0.00 | 88 | 1015.3 |
| 20260903070503 | 25 | 119 | 0.0 | 0.0 | 0.00 | 0.00 | 0.00 | 88 | 1015.3 |
| 20260903070020 | 24 | 119 | 0.0 | 0.0 | 0.00 | 0.00 | 0.00 | 88 | 1015.3 |
| 20260903065508 | 24 | 113 | 0.0 | 0.0 | 0.00 | 0.00 | 0.00 | 89 | 1015.3 |
| 20260903065007 | 24 | 129 | 0.0 | 0.0 | 0.00 | 0.00 | 0.00 | 89 | 1015.4 |
| 20260903064516 | 24 | 129 | 0.0 | 0.0 | 0.00 | 0.00 | 0.00 | 90 | 1015.5 |
| 20260903064007 | 24 | 151 | 0.0 | 0.0 | 0.00 | 0.00 | 0.00 | 90 | 1015.4 |
| 20260903063508 | 24 | 151 | 0.0 | 0.0 | 0.00 | 0.00 | 0.00 | 90 | 1015.5 |
| 20260903063017 | 24 | 151 | 0.0 | 0.0 | 0.00 | 0.00 | 0.00 | 90 | 1015.5 |
| 20260903062507 | 24 | 151 | 0.0 | 0.0 | 0.00 | 0.00 | 0.00 | 91 | 1015.6 |
| 20260903062011 | 24 | 151 | 0.0 | 0.0 | 0.00 | 0.00 | 0.00 | 91 | 1015.6 |
| 20260903061516 | 24 | 151 | 0.0 | 0.0 | 0.00 | 0.00 | 0.00 | 91 | 1015.7 |
| 20260903061011 | 24 | 151 | 0.0 | 0.0 | 0.00 | 0.00 | 0.00 | 90 | 1015.7 |
| 20260903060508 | 24 | 151 | 0.0 | 0.0 | 0.00 | 0.00 | 0.00 | 90 | 1015.7 |
| 20260903060021 | 24 | 151 | 0.0 | 0.0 | 0.00 | 0.00 | 0.00 | 90 | 1015.7 |
| 20260903055508 | 24 | 151 | 0.0 | 0.0 | 0.00 | 0.00 | 0.00 | 91 | 1015.7 |
| 20260903055011 | 24 | 151 | 0.0 | 0.0 | 0.00 | 0.00 | 0.00 | 92 | 1015.7 |
| 20260903054526 | 24 | 151 | 0.0 | 0.0 | 0.00 | 0.00 | 0.00 | 92 | 1015.9 |
| 20260903054009 | 24 | 151 | 0.0 | 0.0 | 0.00 | 0.00 | 0.00 | 92 | 1015.9 |
| 20260903053508 | 24 | 151 | 0.0 | 0.0 | 0.00 | 0.00 | 0.00 | 91 | 1016.0 |
| 20260903053020 | 24 | 151 | 0.0 | 0.0 | 0.00 | 0.00 | 0.00 | 92 | 1016.0 |
| 20260903052507 | 25 | 151 | 0.0 | 0.0 | 0.00 | 0.00 | 0.00 | 92 | 1016.1 |
| 20260903052012 | 24 | 151 | 0.0 | 0.0 | 0.00 | 0.00 | 0.00 | 91 | 1016.1 |
| 20260903051518 | 24 | 151 | 0.0 | 0.0 | 0.00 | 0.00 | 0.00 | 92 | 1016.1 |
| 20260903051011 | 24 | 151 | 0.0 | 0.0 | 0.00 | 0.00 | 0.00 | 92 | 1016.0 |
| 20260903050508 | 24 | 151 | 0.0 | 0.0 | 0.00 | 0.00 | 0.00 | 92 | 1016.0 |
| 20260903050027 | 24 | 151 | 0.0 | 0.0 | 0.00 | 0.00 | 0.00 | 92 | 1015.9 |
| 20260903045508 | 24 | 46 | 0.0 | 0.0 | 0.00 | 0.00 | 0.00 | 91 | 1015.8 |
| 20260903045009 | 24 | 46 | 0.0 | 0.0 | 0.00 | 0.00 | 0.00 | 90 | 1015.8 |
| 20260903044518 | 25 | 46 | 0.0 | 0.0 | 0.00 | 0.00 | 0.00 | 91 | 1015.7 |
| 20260903044010 | 24 | 46 | 0.0 | 0.0 | 0.00 | 0.00 | 0.00 | 91 | 1015.7 |
| 20260903043512 | 24 | 46 | 0.0 | 0.0 | 0.00 | 0.00 | 0.00 | 90 | 1015.7 |
| 20260903043019 | 24 | 46 | 0.0 | 0.0 | 0.00 | 0.00 | 0.00 | 91 | 1015.8 |
| 20260903042509 | 24 | 46 | 0.0 | 0.0 | 0.00 | 0.00 | 0.00 | 91 | 1015.7 |
| 20260903042007 | 24 | 46 | 0.0 | 0.0 | 0.00 | 0.00 | 0.00 | 92 | 1015.6 |
| 20260903041520 | 25 | 46 | 0.0 | 0.0 | 0.00 | 0.00 | 0.00 | 92 | 1015.5 |
| 20260903041012 | 25 | 46 | 0.0 | 0.0 | 0.00 | 0.00 | 0.00 | 92 | 1015.6 |
| 20260903040511 | 25 | 46 | 0.0 | 0.0 | 0.00 | 0.00 | 0.00 | 92 | 1015.7 |
| 20260903040025 | 25 | 46 | 0.0 | 0.0 | 0.00 | 0.00 | 0.00 | 92 | 1015.7 |
| 20260903035510 | 25 | 46 | 0.0 | 0.0 | 0.00 | 0.00 | 0.00 | 92 | 1015.7 |
| 20260903035010 | 25 | 46 | 0.0 | 0.0 | 0.00 | 0.00 | 0.00 | 93 | 1015.7 |
| 20260903034520 | 25 | 46 | 0.0 | 0.0 | 0.00 | 0.00 | 0.00 | 93 | 1015.7 |
| 20260903034010 | 25 | 46 | 0.0 | 0.0 | 0.00 | 0.00 | 0.00 | 93 | 1015.7 |
| 20260903033509 | 25 | 46 | 0.0 | 0.0 | 0.00 | 0.00 | 0.00 | 93 | 1015.7 |
| 20260903033031 | 25 | 46 | 0.0 | 0.0 | 0.00 | 0.00 | 0.00 | 92 | 1015.6 |
| 20260903032509 | 25 | 46 | 0.0 | 0.0 | 0.00 | 0.00 | 0.00 | 92 | 1015.6 |
| 20260903032009 | 25 | 46 | 0.0 | 0.0 | 0.00 | 0.00 | 0.00 | 92 | 1015.6 |
| 20260903031529 | 25 | 46 | 0.0 | 0.0 | 0.00 | 0.00 | 0.00 | 91 | 1015.6 |
| 20260903031011 | 25 | 46 | 0.0 | 0.0 | 0.00 | 0.00 | 0.00 | 91 | 1015.6 |
| 20260903030515 | 25 | 46 | 0.0 | 0.0 | 0.00 | 0.00 | 0.00 | 90 | 1015.8 |
| 20260903030022 | 25 | 46 | 0.0 | 0.0 | 0.00 | 0.00 | 0.00 | 90 | 1015.9 |
| 20260903025513 | 25 | 46 | 0.0 | 0.0 | 0.00 | 0.00 | 0.00 | 90 | 1015.9 |
| 20260903025012 | 25 | 46 | 0.0 | 0.0 | 0.00 | 0.00 | 0.00 | 89 | 1016.0 |
| 20260903024521 | 25 | 46 | 0.0 | 0.0 | 0.00 | 0.00 | 0.00 | 90 | 1016.0 |
| 20260903024010 | 25 | 46 | 0.0 | 0.0 | 0.00 | 0.00 | 0.00 | 90 | 1016.0 |
| 20260903023510 | 25 | 46 | 0.0 | 0.0 | 0.00 | 0.00 | 0.00 | 89 | 1016.0 |
| 20260903023021 | 25 | 46 | 0.0 | 0.0 | 0.00 | 0.00 | 0.00 | 89 | 1016.1 |
| 20260903022511 | 26 | 46 | 0.0 | 0.0 | 0.00 | 0.00 | 0.00 | 89 | 1016.0 |
| 20260903022007 | 26 | 46 | 0.0 | 0.0 | 0.00 | 0.00 | 0.00 | 88 | 1016.0 |
| 20260903021507 | 26 | 46 | 0.0 | 0.0 | 0.00 | 0.00 | 0.00 | 88 | 1015.9 |
| 20260903021002 | 26 | 46 | 0.0 | 0.0 | 0.00 | 0.00 | 0.00 | 87 | 1015.8 |
| 20260903020503 | 26 | 46 | 0.0 | 0.0 | 0.00 | 0.00 | 0.00 | 86 | 1015.7 |
| 20260903020008 | 26 | 46 | 0.0 | 0.0 | 0.00 | 0.00 | 0.00 | 86 | 1015.6 |
| 20260903015504 | 26 | 46 | 0.0 | 0.0 | 0.00 | 0.00 | 0.00 | 85 | 1015.5 |
| 20260903015004 | 26 | 46 | 0.0 | 0.0 | 0.00 | 0.00 | 0.00 | 83 | 1015.5 |
| 20260903014514 | 26 | 46 | 0.0 | 0.0 | 0.00 | 0.00 | 0.00 | 83 | 1015.4 |
| 20260903014007 | 26 | 46 | 0.0 | 0.0 | 0.00 | 0.00 | 0.00 | 83 | 1015.4 |
| 20260903013510 | 26 | 46 | 0.0 | 0.0 | 0.00 | 0.00 | 0.00 | 83 | 1015.4 |
| 20260903013022 | 26 | 46 | 0.0 | 0.0 | 0.00 | 0.00 | 0.00 | 83 | 1015.4 |
| 20260903012511 | 27 | 46 | 0.0 | 0.0 | 0.00 | 0.00 | 0.00 | 81 | 1015.4 |
| 20260903012011 | 27 | 46 | 0.0 | 0.0 | 0.00 | 0.00 | 0.00 | 82 | 1015.4 |
| 20260903011504 | 27 | 46 | 0.0 | 0.0 | 0.00 | 0.00 | 0.00 | 78 | 1015.4 |
| 20260903011004 | 27 | 46 | 0.0 | 0.0 | 0.00 | 0.00 | 0.00 | 79 | 1015.3 |
| 20260903010502 | 28 | 46 | 0.0 | 0.0 | 0.00 | 0.00 | 0.00 | 79 | 1015.4 |
| 20260903010004 | 28 | 46 | 0.0 | 0.0 | 0.00 | 0.00 | 0.00 | 77 | 1015.4 |
| 20260903005504 | 28 | 46 | 0.0 | 0.0 | 0.00 | 0.00 | 0.00 | 77 | 1015.4 |
| 20260903005003 | 28 | 46 | 0.0 | 0.0 | 0.00 | 0.00 | 0.00 | 75 | 1015.5 |
| 20260903004516 | 28 | 46 | 0.0 | 0.0 | 0.00 | 0.00 | 0.00 | 74 | 1015.5 |
| 20260903004009 | 28 | 46 | 0.0 | 0.0 | 0.00 | 0.00 | 0.00 | 73 | 1015.4 |
| 20260903003507 | 29 | 46 | 0.0 | 0.0 | 0.00 | 0.00 | 0.00 | 73 | 1015.4 |
| 20260903003019 | 29 | 46 | 0.0 | 0.0 | 0.00 | 0.00 | 0.00 | 72 | 1015.4 |
| 20260903002510 | 29 | 46 | 0.0 | 0.0 | 0.00 | 0.00 | 0.00 | 71 | 1015.4 |
| 20260903002011 | 30 | 46 | 0.0 | 0.0 | 0.00 | 0.00 | 0.00 | 70 | 1015.3 |
| 20260903001524 | 30 | 46 | 0.0 | 0.0 | 0.00 | 0.00 | 0.00 | 70 | 1015.2 |
| 20260903001012 | 30 | 46 | 0.0 | 0.0 | 0.00 | 0.00 | 0.00 | 69 | 1015.2 |
| 20260903000503 | 30 | 46 | 0.0 | 0.0 | 0.00 | 0.00 | 0.00 | 68 | 1015.2 |
| 20260903000005 | 30 | 71 | 0.0 | 0.0 | 0.00 | 0.00 | 0.00 | 67 | 1015.1 |
| 20260902235503 | 30 | 78 | 0.0 | 0.0 | 0.00 | 0.00 | 0.00 | 69 | 1015.2 |
| 20260902235004 | 31 | 78 | 0.0 | 0.0 | 0.00 | 0.00 | 0.00 | 68 | 1015.2 |
| 20260902234514 | 31 | 78 | 0.0 | 0.0 | 0.00 | 0.00 | 0.00 | 68 | 1015.2 |
| 20260902234006 | 31 | 74 | 0.0 | 1.6 | 0.00 | 0.00 | 0.00 | 68 | 1015.1 |
| 20260902233506 | 31 | 74 | 0.0 | 9.7 | 0.00 | 0.00 | 0.00 | 68 | 1015.0 |
| 20260902233016 | 31 | 90 | 3.2 | 9.7 | 0.00 | 0.00 | 0.00 | 68 | 1014.9 |
| 20260902232507 | 31 | 86 | 0.0 | 4.8 | 0.00 | 0.00 | 0.00 | 66 | 1014.9 |
| 20260902232011 | 32 | 78 | 1.6 | 4.8 | 0.00 | 0.00 | 0.00 | 65 | 1014.7 |
| 20260902231524 | 32 | 84 | 0.0 | 4.8 | 0.00 | 0.00 | 0.00 | 65 | 1014.7 |
| 20260902231014 | 32 | 79 | 1.6 | 4.8 | 0.00 | 0.00 | 0.00 | 65 | 1014.7 |
| 20260902230513 | 32 | 71 | 0.0 | 3.2 | 0.00 | 0.00 | 0.00 | 64 | 1014.8 |
| 20260902230028 | 32 | 87 | 0.0 | 6.4 | 0.00 | 0.00 | 0.00 | 64 | 1014.8 |
| 20260902225503 | 32 | 94 | 3.2 | 6.4 | 0.00 | 0.00 | 0.00 | 61 | 1014.9 |
| 20260902225004 | 32 | 83 | 1.6 | 6.4 | 0.00 | 0.00 | 0.00 | 63 | 1014.9 |
| 20260902224506 | 32 | 91 | 1.6 | 6.4 | 0.00 | 0.00 | 0.00 | 60 | 1014.9 |
| 20260902224005 | 32 | 126 | 3.2 | 12.9 | 0.00 | 0.00 | 0.00 | 59 | 1014.8 |
| 20260902223503 | 33 | 73 | 4.8 | 16.1 | 0.00 | 0.00 | 0.00 | 59 | 1014.8 |
| 20260902223016 | 33 | 83 | 8.0 | 16.1 | 0.00 | 0.00 | 0.00 | 57 | 1014.8 |
| 20260902222509 | 33 | 108 | 9.7 | 14.5 | 0.00 | 0.00 | 0.00 | 56 | 1014.9 |
| 20260902222013 | 33 | 86 | 9.7 | 14.5 | 0.00 | 0.00 | 0.00 | 56 | 1014.9 |
| 20260902221522 | 33 | 68 | 8.0 | 14.5 | 0.00 | 0.00 | 0.00 | 56 | 1014.9 |
| 20260902221010 | 33 | 75 | 6.4 | 14.5 | 0.00 | 0.00 | 0.00 | 56 | 1014.9 |
| 20260902220515 | 33 | 84 | 6.4 | 14.5 | 0.00 | 0.00 | 0.00 | 57 | 1014.9 |
| 20260902220028 | 33 | 103 | 6.4 | 14.5 | 0.00 | 0.00 | 0.00 | 55 | 1015.0 |
| 20260902215520 | 33 | 85 | 8.0 | 19.3 | 0.00 | 0.00 | 0.00 | 54 | 1015.0 |
| 20260902215013 | 33 | 74 | 11.3 | 19.3 | 0.00 | 0.00 | 0.00 | 54 | 1015.1 |
| 20260902214506 | 33 | 92 | 8.0 | 14.5 | 0.00 | 0.00 | 0.00 | 54 | 1015.1 |
| 20260902214005 | 33 | 87 | 8.0 | 14.5 | 0.00 | 0.00 | 0.00 | 55 | 1015.1 |
| 20260902213505 | 33 | 74 | 6.4 | 12.9 | 0.00 | 0.00 | 0.00 | 55 | 1015.1 |
| 20260902213014 | 33 | 98 | 6.4 | 14.5 | 0.00 | 0.00 | 0.00 | 57 | 1015.1 |
| 20260902212507 | 33 | 70 | 4.8 | 12.9 | 0.00 | 0.00 | 0.00 | 55 | 1015.1 |
| 20260902212009 | 33 | 84 | 6.4 | 12.9 | 0.00 | 0.00 | 0.00 | 57 | 1015.1 |
| 20260902211520 | 33 | 26 | 4.8 | 11.3 | 0.00 | 0.00 | 0.00 | 56 | 1015.2 |
| 20260902211009 | 33 | 80 | 4.8 | 12.9 | 0.00 | 0.00 | 0.00 | 58 | 1015.2 |
| 20260902210509 | 33 | 51 | 9.7 | 17.7 | 0.00 | 0.00 | 0.00 | 1015.4 | |
| 20260902210041 | 33 | 82 | 8.0 | 17.7 | 0.00 | 0.00 | 0.00 | 1015.4 | |
| 20260902205514 | 34 | 30 | 9.7 | 16.1 | 0.00 | 0.00 | 0.00 | 55 | 1015.3 |
| 20260902205016 | 34 | 53 | 4.8 | 9.7 | 0.00 | 0.00 | 0.00 | 55 | 1015.3 |
| 20260902204528 | 33 | 17 | 4.8 | 12.9 | 0.00 | 0.00 | 0.00 | 54 | 1015.4 |
| 20260902204003 | 33 | 27 | 4.8 | 14.5 | 0.00 | 0.00 | 0.00 | 54 | 1015.5 |
| 20260902203505 | 33 | 57 | 4.8 | 16.1 | 0.00 | 0.00 | 0.00 | 57 | 1015.5 |